Location: L�Ave Maria
(50.7161°N, 1.5911°E)
Time: 13:06:57
(UTC+00:00)

Resurs 01 Rocket - Pass Details

Date: 10 July 2020
Orbit: 634 x 644 km, 98.0° (Epoch: 06 August)

Event Time Altitude Azimuth Distance (km) Brightness Sun altitude
Rises 21:06:25 0° 192° (SSW) 2,926 4.7 -7.9°
Reaches altitude 10° 21:08:51 10° 204° (SSW) 2,021 3.9 -8.1°
Maximum altitude 21:12:42 29° 265° (W) 1,161 3.4 -8.5°
Drops below altitude 10° 21:16:35 10° 327° (NNW) 2,033 5.9 -8.9°
Sets 21:19:03 0° 338° (NNW) 2,946 6.8 -9.1°
